N7DTY Weather Reports


Display with metric or nautical units.
time (UTC)temp
F
wind
direction
speed
MPH
gust
MPH
rain 1hr
in
rain 24hr
in
rain mn
in
humidity
%
barometer
mb
20260510101531 52 90 0.0 2.0 0.00 0.00 0.00 88 1015.9
20260510100030 52 90 0.0 2.0 0.00 0.00 0.00 88 1016.1
20260510094538 52 84 0.0 2.0 0.00 0.00 0.00 87 1016.2
20260510093026 52 63 0.0 2.0 0.00 0.00 0.00 86 1016.0
20260510091526 53 62 0.0 2.0 0.00 0.00 0.00 85 1016.0
20260510090026 53 154 1.0 4.0 0.00 0.00 0.00 84 1015.9
20260510084524 54 184 0.0 5.0 0.00 0.00 0.00 84 1015.9
20260510083023 54 183 1.0 5.0 0.00 0.00 0.00 84 1015.8
20260510081534 54 193 1.0 6.0 0.00 0.00 0.00 84 1015.8
20260510080030 54 157 0.0 3.0 0.00 0.00 0.00 84 1015.8
20260510074519 54 173 0.0 4.0 0.00 0.00 0.00 84 1015.6
20260510073017 53 177 0.0 4.0 0.00 0.00 0.00 86 1015.6
20260510071514 53 159 1.0 6.0 0.00 0.00 0.00 86 1015.7
20260510070013 53 47 0.0 0.0 0.00 0.00 0.00 85 1015.7
20260510064516 53 47 0.0 0.0 0.00 0.00 0.00 84 1015.7
20260510063016 53 47 0.0 0.0 0.00 0.00 0.00 82 1015.6
20260510061521 53 47 0.0 0.0 0.00 0.00 0.00 82 1015.6
20260510060010 53 47 0.0 0.0 0.00 0.00 0.00 82 1015.6
20260510054509 53 47 0.0 0.0 0.00 0.00 0.00 82 1015.5
20260510053009 53 47 0.0 0.0 0.00 0.00 0.00 81 1015.7
20260510051517 54 47 0.0 0.0 0.00 0.00 0.00 79 1015.8
20260510050009 54 47 0.0 0.0 0.00 0.00 0.00 80 1015.9
20260510044509 55 47 0.0 0.0 0.00 0.00 0.00 80 1015.9
20260510043017 55 47 0.0 0.0 0.00 0.00 0.00 78 1015.7
20260510041507 56 47 0.0 0.0 0.00 0.00 0.00 76 1015.6
20260510040006 57 47 0.0 0.0 0.00 0.00 0.00 73 1015.4
20260510034506 58 47 0.0 0.0 0.00 0.00 0.00 70 1015.5
20260510033005 59 47 0.0 0.0 0.00 0.00 0.00 70 1015.4
20260510031505 60 35 0.0 0.0 0.00 0.00 0.00 68 1015.5
20260510030009 61 35 0.0 1.0 0.00 0.00 0.00 67 1015.6
20260510024503 62 35 0.0 2.0 0.00 0.00 0.00 65 1015.6
20260510023005 64 35 0.0 2.0 0.00 0.00 0.00 65 1015.7
20260510021502 65 340 0.0 3.0 0.00 0.00 0.00 61 1015.7
20260510020101 66 348 2.0 5.0 0.00 0.00 0.00 58 1015.8
20260510014615 66 23 1.0 3.0 0.00 0.00 0.00 61 1016.1
20260510013104 66 22 0.0 3.0 0.00 0.00 0.00 61 1016.5
20260510011554 66 24 0.0 4.0 0.00 0.00 0.00 63 1016.6
20260510010053 66 24 1.0 4.0 0.00 0.00 0.00 59 1016.8
20260510004555 66 340 2.0 5.0 0.00 0.00 0.00 57 1016.9
20260510003052 66 336 1.0 4.0 0.00 0.00 0.00 61 1017.0
20260510001548 67 355 1.0 5.0 0.00 0.00 0.00 56 1017.3
20260510000046 67 160 0.0 6.0 0.00 0.00 0.00 57 1017.8
20260509234544 67 234 1.0 4.0 0.00 0.00 0.00 57 1017.8
20260509233046 67 34 2.0 5.0 0.00 0.00 0.00 54 1018.4
20260509231544 68 286 1.0 5.0 0.00 0.00 0.00 54 1018.5
20260509230038 67 344 2.0 9.0 0.00 0.00 0.00 55 1018.8
20260509224536 67 205 1.0 5.0 0.00 0.00 0.00 55 1019.1
20260509223042 68 329 1.0 6.0 0.00 0.00 0.00 57 1019.3
20260509221533 67 36 1.0 6.0 0.00 0.00 0.00 59 1019.5
20260509220031 67 355 1.0 5.0 0.00 0.00 0.00 59 1019.6
20260509214529 66 121 1.0 4.0 0.00 0.00 0.00 62 1019.6
20260509213028 67 338 2.0 9.0 0.00 0.00 0.00 57 1019.8
20260509211527 67 24 1.0 5.0 0.00 0.00 0.00 61 1020.0
20260509210036 66 342 1.0 5.0 0.00 0.00 0.00 62 1020.1
20260509204525 66 319 2.0 6.0 0.00 0.00 0.00 60 1019.9
20260509203025 66 24 3.0 5.0 0.00 0.00 0.00 59 1020.0
20260509201526 67 48 1.0 5.0 0.00 0.00 0.00 61 1020.1
20260509200023 66 196 2.0 8.0 0.00 0.00 0.00 59 1020.1
20260509194522 65 235 2.0 6.0 0.00 0.00 0.00 61 1020.4
20260509193018 67 12 1.0 3.0 0.00 0.00 0.00 61 1020.7
20260509191519 66 194 1.0 5.0 0.00 0.00 0.00 55 1020.8
20260509190017 66 40 3.0 6.0 0.00 0.00 0.00 51 1021.0
20260509184517 66 49 2.0 9.0 0.00 0.00 0.00 54 1021.0
20260509183012 66 67 0.0 5.0 0.00 0.00 0.00 57 1021.0
20260509181510 65 344 3.0 8.0 0.00 0.00 0.00 56 1021.4
20260509180006 64 43 2.0 5.0 0.00 0.00 0.00 60 1021.2
20260509174505 63 79 2.0 12.0 0.00 0.00 0.00 60 1021.2
20260509173120 62 15 5.0 10.0 0.00 0.00 0.00 61 1021.3
20260509171559 61 355 4.0 9.0 0.00 0.00 0.00 65 1021.4
20260509170107 61 360 2.0 6.0 0.00 0.00 0.00 65 1021.5
20260509164652 60 11 4.0 8.0 0.00 0.00 0.00 68 1021.5
20260509163050 60 13 2.0 9.0 0.00 0.00 0.00 68 1021.9
20260509161544 59 22 4.0 9.0 0.00 0.00 0.00 71 1022.1
20260509160043 58 350 3.0 9.0 0.00 0.00 0.00 73 1022.2
20260509154535 57 350 2.0 5.0 0.00 0.00 0.00 74 1022.3
20260509153034 56 323 1.0 5.0 0.00 0.00 0.00 76 1022.2
20260509151527 55 338 3.0 8.0 0.00 0.00 0.00 75 1022.4
20260509150024 54 345 1.0 4.0 0.00 0.00 0.00 79 1022.5
20260509144521 53 340 2.0 4.0 0.00 0.00 0.00 80 1022.5
20260509143020 53 355 2.0 4.0 0.00 0.00 0.00 80 1022.6
20260509141518 53 22 1.0 2.0 0.00 0.00 0.00 82 1022.7
20260509140015 52 128 1.0 3.0 0.00 0.00 0.00 83 1022.8
20260509134512 52 136 1.0 2.0 0.00 0.00 0.00 86 1022.8
20260509133010 51 136 0.0 1.0 0.00 0.00 0.00 86 1022.8
20260509131507 51 136 1.0 2.0 0.00 0.00 0.00 86 1022.7
20260509130018 51 136 0.0 0.0 0.00 0.00 0.00 86 1022.7
20260509124515 51 136 0.0 1.0 0.00 0.00 0.00 86 1022.7
20260509123004 51 136 0.0 1.0 0.00 0.00 0.00 85 1022.6
20260509121503 52 136 0.0 2.0 0.00 0.00 0.00 84 1022.7
20260509120007 52 136 0.0 2.0 0.00 0.00 0.00 84 1022.7
20260509114503 52 136 0.0 0.0 0.00 0.00 0.00 84 1022.7
20260509113004 52 136 0.0 1.0 0.00 0.00 0.00 84 1022.7
20260509111600 52 136 0.0 0.0 0.00 0.00 0.00 84 1022.7
20260509111501 52 136 0.0 0.0 0.00 0.00 0.00 83 1022.7
20260509110000 52 136 0.0 0.0 0.00 0.00 0.00 83 1022.6
20260509104600 52 136 0.0 2.0 0.00 0.00 0.00 83 1022.6
20260509103109 52 136 1.0 2.0 0.00 0.00 0.00 83 1022.7